Location: Amon Carter Post Office
(32.8281°N, 97.0484°W)
Time: 11:37:11
(UTC+00:00)

Sich 1 - Pass Details

Date: 12 July 2022
Orbit: 593 x 623 km, 82.5° (Epoch: 09 August)

Event Time Altitude Azimuth Distance (km) Brightness Sun altitude
Exits shadow 09:18:41 37° 300° (WNW) 934 3.8 -22.6°
Drops below altitude 10° 09:22:07 10° 349° (N) 1,933 6.1 -22.1°
Sets 09:24:27 0° 357° (N) 2,836 7.1 -21.8°
